Theta_e
364 366 360 353 352 351 350 347 341 335 337 348 345 358 353 351 353 354 357 350 344 342 341 341 341 343 345 347 344 344 346 347 348 348 345 341 340 340
360 371 369 357 359 355 354 351 348 344 339 345 345 355 361 351 355 358 359 348 345 341 340 338 339 340 340 341 341 340 342 344 345 343 339 339 340 339
367 366 367 373 358 354 354 354 352 349 344 347 350 357 373 368 361 363 360 365 357 341 339 338 337 337 338 338 338 337 338 340 341 340 337 337 337 337
363 369 365 360 373 372 359 368 359 363 352 357 358 355 364 369 372 374 363 359 361 351 339 337 336 335 335 335 334 333 333 335 336 335 335 335 335 337
365 367 367 370 372 365 371 363 358 361 360 355 354 356 356 357 361 368 369 366 361 351 342 337 334 333 332 330 331 329 327 328 330 328 329 331 333 335
365 367 367 368 371 373 369 373 369 364 359 354 354 354 355 365 360 356 356 357 358 358 355 350 341 337 333 330 331 328 323 322 324 324 324 326 329 329
365 365 367 364 352 357 361 369 373 364 355 354 352 350 349 351 356 356 355 357 361 372 363 369 362 362 367 334 338 334 327 322 321 320 321 322 322 323
364 367 369 359 354 343 342 343 353 366 367 357 353 352 361 358 357 354 356 354 353 367 362 360 367 358 363 358 335 334 328 323 320 321 320 320 320 320
365 366 362 352 356 367 347 340 342 338 342 361 361 361 361 365 366 363 364 364 360 363 363 355 361 354 351 348 330 329 325 321 320 320 320 319 318 317
365 368 368 364 363 364 367 366 365 366 364 357 362 363 366 370 372 366 367 365 364 364 364 348 354 348 343 339 328 325 321 319 319 319 318 316 314 314
366 367 367 367 351 339 362 361 362 362 347 334 335 336 336 335 342 357 355 355 354 357 353 353 345 341 338 333 329 321 318 317 317 318 317 315 311 309
363 367 341 355 339 332 362 364 361 363 365 365 368 357 339 353 335 355 362 358 360 346 351 347 339 336 331 335 331 327 325 315 313 313 314 312 309 326
353 353 356 331 328 326 327 365 362 363 360 366 365 364 369 370 373 363 373 368 359 351 349 346 335 334 335 328 328 331 328 323 321 316 310 308 309 317
355 349 352 324 320 322 327 333 329 334 357 356 357 358 360 363 365 371 370 367 360 357 348 348 337 338 335 331 326 327 327 327 325 323 324 313 308 309
358 343 328 319 314 320 318 324 324 353 355 356 357 358 362 364 371 361 362 358 353 349 350 346 344 344 340 338 330 324 325 327 332 334 335 323 328 325
342 352 346 335 325 339 348 337 353 360 360 361 361 362 365 372 366 356 347 350 342 340 346 348 348 347 339 339 333 325 330 328 334 338 337 335 331 327
352 359 356 356 358 360 363 365 366 365 361 362 362 363 365 370 358 352 347 348 342 338 337 343 348 349 344 344 332 331 333 334 337 337 335 330 330 327
351 357 357 359 360 360 361 359 363 358 364 367 365 364 359 356 350 348 348 347 347 340 339 340 339 337 338 339 333 334 334 334 335 337 335 327 324 328
360 360 358 358 360 359 358 358 357 360 369 365 361 360 356 353 346 346 347 347 344 342 341 340 337 335 331 328 335 310 333 334 334 333 331 328 326 325
358 359 358 362 361 359 360 361 363 362 365 362 359 357 354 351 345 346 347 346 343 342 340 339 336 337 334 332 332 334 305 338 333 330 329 329 315 310
359 359 361 361 362 362 363 365 363 363 363 360 356 356 353 351 349 347 346 329 332 340 337 337 338 332 343 344 334 332 328 308 324 333 332 326 320 319
357 356 358 361 362 363 362 366 367 362 359 355 354 351 348 346 345 342 346 343 339 340 338 340 342 339 337 335 332 336 330 326 312 309 311 322 325 317
360 359 360 360 368 366 365 363 361 361 359 355 351 347 345 344 346 348 345 341 340 337 338 336 337 337 336 335 330 331 333 329 324 321 320 308 310 310
Wind_Speed
5 7 6 8 5 4 4 5 5 6 6 3 2 1 4 5 2 6 7 5 16 17 17 17 18 20 20 19 18 17 16 16 15 13 13 11 10 6
9 9 6 8 6 4 6 6 6 6 8 7 6 5 4 6 6 6 8 10 11 16 18 19 20 20 18 17 16 17 16 16 15 14 15 14 11 8
8 6 7 7 8 7 6 6 7 7 8 8 7 7 6 5 8 8 8 9 11 15 17 17 19 20 20 19 16 16 17 17 17 14 12 14 14 10
10 9 10 9 10 8 8 8 8 7 8 9 9 9 10 9 8 8 8 10 10 12 15 18 20 18 14 15 15 15 16 19 19 15 16 15 11 10
11 10 11 10 9 10 7 8 8 8 9 10 10 8 8 8 9 9 8 10 10 17 18 13 13 12 14 16 13 15 16 17 14 22 20 19 13 8
11 11 11 11 10 9 9 9 9 10 10 10 10 10 9 7 7 8 7 8 10 11 8 7 7 11 13 11 13 13 11 13 11 21 23 21 17 14
11 11 12 12 10 8 9 9 9 10 10 10 9 9 9 9 10 9 10 10 10 0 10 6 9 9 3 8 10 12 12 14 15 19 24 23 19 16
12 12 12 10 10 12 12 13 12 10 10 11 11 11 10 10 10 10 11 11 11 6 7 9 6 9 8 6 16 6 12 13 16 23 22 23 20 17
12 11 11 12 13 14 15 17 16 15 16 13 14 13 13 10 10 10 10 9 10 10 8 9 8 8 8 8 17 13 7 13 17 22 23 20 18 16
12 12 13 14 13 11 11 12 13 13 13 12 14 13 12 10 9 10 9 10 9 7 4 2 5 6 8 10 18 14 7 13 18 20 18 16 16 16
13 14 15 15 14 13 14 15 15 14 12 12 15 16 15 11 10 7 8 8 9 2 1 2 3 4 5 8 9 14 11 14 16 17 16 17 14 13
14 15 15 17 13 12 13 14 15 13 12 12 10 8 11 9 13 9 7 8 5 1 2 1 2 0 2 4 6 5 5 11 12 12 13 15 15 10
13 12 12 21 22 20 15 14 14 9 11 10 10 10 5 8 5 7 8 4 4 4 4 3 2 2 2 2 3 3 4 4 4 5 12 14 18 3
13 12 12 12 20 21 16 15 12 10 12 12 11 10 8 8 8 5 3 1 1 3 7 5 4 5 5 5 3 1 2 3 5 6 6 3 1 3
13 8 7 2 7 5 9 7 11 9 10 11 10 8 8 9 5 7 4 5 4 2 3 5 5 5 5 4 6 3 3 3 7 10 9 7 10 10
15 14 12 8 7 7 4 9 9 10 11 9 8 9 9 4 6 7 4 5 3 3 5 7 7 6 6 5 7 6 6 6 10 9 8 10 11 9
11 11 12 12 12 12 11 11 8 7 9 10 9 8 8 3 5 5 4 4 6 5 6 6 6 5 4 8 7 9 12 8 10 9 9 11 10 9
11 11 12 12 12 11 7 7 10 10 10 9 8 6 6 6 7 6 6 8 8 7 8 9 7 7 6 2 3 10 9 8 9 10 10 9 9 8
8 10 10 11 8 6 9 9 10 9 10 7 7 7 6 7 7 8 7 7 8 8 9 8 9 9 9 8 8 1 11 9 10 10 9 8 7 8
10 11 11 7 5 9 11 11 13 8 7 8 9 8 7 7 7 7 8 9 9 8 8 7 9 10 10 9 9 10 6 9 10 9 9 5 5 8
11 12 11 11 11 13 12 11 9 6 6 7 8 8 8 8 8 7 8 9 9 8 10 10 10 7 6 4 7 10 6 10 2 10 9 9 8 7
13 12 11 10 11 10 8 7 5 4 6 8 7 7 6 6 6 8 10 9 9 10 10 8 8 9 8 10 10 10 10 7 6 11 11 3 8 9
13 12 10 10 4 4 7 8 5 8 9 8 9 7 8 8 9 10 10 9 10 11 10 9 7 10 10 11 11 10 14 13 9 7 5 6 12 9
Wind_Direction
204 228 249 265 219 234 251 257 276 292 294 188 263 72 304 283 322 292 291 228 214 218 225 224 226 231 233 228 223 222 218 215 209 200 177 172 163 180
233 180 228 271 283 236 262 262 259 269 282 293 295 313 291 292 298 301 291 284 221 224 226 224 224 229 235 237 231 226 221 216 206 189 177 167 152 163
256 267 209 245 274 277 246 238 254 259 267 274 287 306 306 265 263 261 270 277 282 232 230 228 229 229 226 228 226 225 221 223 214 193 172 158 148 165
222 234 242 235 216 245 273 283 284 296 289 288 292 289 269 270 269 258 258 275 274 271 221 226 226 229 228 233 236 233 222 219 207 176 157 148 155 172
224 225 232 235 241 262 266 270 256 234 236 249 271 285 295 293 277 258 251 263 269 256 244 229 223 225 226 224 237 236 219 221 201 164 156 148 158 182
229 236 237 238 238 238 242 250 257 267 275 272 268 267 271 273 265 274 296 317 299 309 330 300 110 224 230 226 243 238 212 214 200 174 155 146 157 162
239 234 234 243 253 253 256 247 252 248 258 265 276 290 296 312 328 314 295 309 316 41 326 344 331 310 321 232 260 232 215 195 186 163 155 151 156 165
228 232 242 248 239 234 235 247 260 274 277 281 283 286 294 293 311 310 312 301 311 323 326 312 329 312 352 20 6 293 206 180 169 166 159 150 162 159
228 232 237 243 223 237 223 230 240 238 235 256 268 271 285 290 301 293 290 309 300 315 331 312 338 326 27 9 6 338 194 171 161 159 154 158 154 158
242 233 232 245 254 259 254 248 240 237 228 229 238 250 255 251 250 287 304 298 287 280 28 285 334 7 10 12 8 3 115 133 148 151 148 147 151 168
238 238 243 249 247 222 240 253 260 264 268 248 251 255 257 257 261 285 278 272 286 339 189 267 37 26 31 15 20 35 79 120 138 140 147 151 152 137
229 234 231 242 242 221 234 249 255 257 263 271 272 250 246 245 236 224 239 258 294 249 160 262 105 106 60 23 36 46 75 75 99 120 133 135 150 168
237 240 233 210 221 228 213 241 249 264 269 274 267 260 263 274 245 187 217 264 281 224 151 121 142 178 86 116 18 52 101 107 97 130 140 161 180 197
246 246 240 221 207 216 216 231 236 252 261 262 264 269 271 263 267 258 136 187 78 343 145 153 175 207 162 162 159 135 119 139 144 150 155 148 65 23
242 245 69 129 183 220 231 230 214 230 243 249 254 258 253 259 136 125 150 117 96 17 174 184 216 199 209 173 143 156 146 172 172 169 169 167 195 212
240 256 267 294 287 275 230 209 221 236 240 244 244 245 250 189 192 159 167 182 182 163 186 194 206 209 243 163 138 161 167 167 189 197 170 169 192 203
221 229 233 235 242 243 240 243 241 233 227 241 246 234 245 216 185 173 164 193 204 184 182 189 187 244 345 148 152 179 179 182 180 171 173 180 187 199
195 228 228 232 237 236 241 249 255 239 242 238 249 248 228 214 189 191 192 227 231 172 198 186 177 188 167 169 165 185 193 190 179 175 195 182 189 190
226 226 234 241 223 229 239 227 232 239 255 251 240 230 208 205 186 197 203 217 224 183 211 186 192 200 190 196 172 220 191 198 179 174 204 193 192 185
246 240 246 235 227 235 250 234 229 226 198 222 232 224 209 201 187 208 205 217 218 216 195 197 203 211 211 209 169 179 40 200 167 184 200 171 60 23
231 226 237 242 226 226 231 241 256 242 221 219 223 217 200 201 202 210 221 223 217 204 218 212 213 221 251 289 163 178 157 38 149 189 190 188 175 172
253 253 248 236 232 232 257 290 262 218 216 234 228 208 195 201 202 214 226 217 218 215 222 215 192 207 224 227 212 174 183 170 83 60 37 193 181 208
252 252 259 261 272 210 216 225 214 236 239 231 223 200 196 207 225 225 217 205 216 213 229 222 192 206 209 222 230 193 184 186 194 195 152 62 101 97